K4DFD-13 Weather Reports


time (UTC)temp
F
wind
direction
speed
knots
gust
knots
rain 1hr
in
rain 24hr
in
rain mn
in
humidity
%
barometer
mb
20260906104223 66 213 2.6 2.6 0.00 0.00 0.00 96 1015.6
20260906103740 65 190 0.0 0.9 0.00 0.00 0.00 96 1015.5
20260906103227 65 38 0.9 1.7 0.00 0.00 0.00 96 1015.5
20260906102721 65 67 0.0 0.9 0.00 0.00 0.00 96 1015.5
20260906102221 65 0 0.0 0.0 0.00 0.00 0.00 95 1015.6
20260906101733 65 59 0.0 0.9 0.00 0.00 0.00 95 1015.5
20260906101220 65 0 0.0 0.9 0.00 0.00 0.00 95 1015.4
20260906100739 66 0 0.0 0.0 0.00 0.00 0.00 95 1015.4
20260906100221 66 276 0.9 1.7 0.00 0.00 0.00 95 1015.3
20260906095733 66 29 0.9 0.9 0.00 0.00 0.00 95 1015.2
20260906095234 66 46 0.0 0.9 0.00 0.00 0.00 95 1015.2
20260906094729 66 28 0.0 0.9 0.00 0.00 0.00 96 1015.2
20260906094227 66 273 0.0 0.9 0.00 0.00 0.00 96 1015.2
20260906093730 66 0 0.0 0.0 0.00 0.00 0.00 96 1015.1
20260906093228 66 0 0.0 0.0 0.00 0.00 0.00 95 1015.2
20260906092714 66 0 0.0 0.0 0.00 0.00 0.00 96 1015.2
20260906092233 65 190 0.9 1.7 0.00 0.00 0.00 96 1015.2
20260906091712 65 0 0.0 0.0 0.00 0.00 0.00 95 1015.2
20260906091212 65 8 0.0 0.9 0.00 0.00 0.00 95 1015.2
20260906090712 65 0 0.0 0.0 0.00 0.00 0.00 95 1015.1
20260906090211 65 208 0.9 0.9 0.00 0.00 0.00 95 1015.2
20260906085711 66 55 0.0 0.9 0.00 0.00 0.00 95 1015.1
20260906085211 66 59 0.9 0.9 0.00 0.00 0.00 95 1015.1
20260906084710 66 0 0.0 0.0 0.00 0.00 0.00 95 1015.2
20260906084225 66 0 0.0 0.0 0.00 0.00 0.00 94 1015.2
20260906083729 66 276 0.0 0.0 0.00 0.00 0.00 94 1015.1
20260906083210 66 39 0.0 0.9 0.00 0.00 0.00 94 1015.1
20260906082713 66 209 0.9 1.7 0.00 0.00 0.00 94 1015.1
20260906082222 66 28 0.9 0.9 0.00 0.00 0.00 94 1015.1
20260906081708 66 246 0.0 0.9 0.00 0.00 0.00 94 1015.0
20260906081218 66 31 0.0 0.9 0.00 0.00 0.00 93 1015.0
20260906080720 66 171 0.0 0.9 0.00 0.00 0.00 93 1015.0
20260906080224 66 243 0.0 0.9 0.00 0.00 0.00 93 1015.1
20260906075703 66 229 1.7 2.6 0.00 0.00 0.00 93 1015.0
20260906075203 66 250 0.0 0.9 0.00 0.00 0.00 93 1014.9
20260906074719 66 313 0.0 0.9 0.00 0.00 0.00 93 1015.0
20260906074221 66 230 1.7 2.6 0.00 0.00 0.00 93 1015.0
20260906073721 67 271 0.9 0.9 0.00 0.00 0.00 93 1015.0
20260906073220 67 238 0.0 0.9 0.00 0.00 0.00 93 1014.9
20260906072719 67 38 0.0 0.9 0.00 0.00 0.00 93 1015.0
20260906072159 67 146 0.9 0.9 0.00 0.00 0.00 93 1015.1
20260906071658 67 27 0.9 1.7 0.00 0.00 0.00 92 1015.0
20260906071158 67 85 0.9 1.7 0.00 0.00 0.00 92 1015.1
20260906070702 67 293 1.7 1.7 0.00 0.00 0.00 91 1015.1
20260906065656 68 99 0.0 1.7 0.00 0.00 0.00 91 1015.1
20260906065208 67 329 0.0 0.9 0.00 0.00 0.00 91 1015.2
20260906064655 67 49 1.7 2.6 0.00 0.00 0.00 91 1015.3
20260906064214 67 242 0.9 0.9 0.00 0.00 0.00 92 1015.3
20260906063714 67 245 0.0 0.9 0.00 0.00 0.00 92 1015.4
20260906063213 67 302 0.0 0.9 0.00 0.00 0.00 92 1015.5
20260906062652 67 213 0.0 0.9 0.00 0.00 0.00 91 1015.5
20260906062202 67 206 0.0 0.9 0.00 0.00 0.00 91 1015.5
20260906061706 67 203 0.9 1.7 0.00 0.00 0.00 91 1015.5
20260906061151 67 220 0.0 0.9 0.00 0.00 0.00 91 1015.5
20260906060650 67 228 0.0 0.9 0.00 0.00 0.00 91 1015.5
20260906060203 67 277 0.9 1.7 0.00 0.00 0.00 91 1015.6
20260906055709 67 206 1.7 1.7 0.00 0.00 0.00 91 1015.5
20260906055208 67 196 0.0 0.9 0.00 0.00 0.00 91 1015.6
20260906054707 67 61 0.0 0.9 0.00 0.00 0.00 90 1015.6
20260906054149 67 216 0.9 1.7 0.00 0.00 0.00 90 1015.5
20260906053650 67 218 1.7 1.7 0.00 0.00 0.00 91 1015.4
20260906053146 67 228 0.9 1.7 0.00 0.00 0.00 91 1015.4
20260906052645 67 224 0.0 0.9 0.00 0.00 0.00 90 1015.3
20260906052205 67 229 0.9 1.7 0.00 0.00 0.00 90 1015.3
20260906051644 67 196 1.7 1.7 0.00 0.00 0.00 90 1015.3
20260906051144 67 212 1.7 1.7 0.00 0.00 0.00 91 1015.4
20260906050643 67 284 0.0 0.9 0.00 0.00 0.00 90 1015.5
20260906050203 67 72 0.0 0.9 0.00 0.00 0.00 89 1015.6
20260906045702 68 88 0.0 0.9 0.00 0.00 0.00 89 1015.5
20260906045159 68 215 0.0 0.9 0.00 0.00 0.00 89 1015.6
20260906044641 68 270 0.0 0.9 0.00 0.00 0.00 89 1015.5
20260906044141 68 258 0.0 0.9 0.00 0.00 0.00 89 1015.4
20260906043641 68 353 0.0 0.0 0.00 0.00 0.00 89 1015.4
20260906043200 68 128 0.0 0.9 0.00 0.00 0.00 88 1015.5
20260906042639 68 178 0.0 0.9 0.00 0.00 0.00 88 1015.5
20260906042138 69 310 0.0 0.9 0.00 0.00 0.00 88 1015.5
20260906041638 69 46 0.0 0.9 0.00 0.00 0.00 87 1015.5
20260906041140 69 324 0.9 1.7 0.00 0.00 0.00 87 1015.6
20260906040637 69 332 0.0 0.9 0.00 0.02 0.00 86 1015.7
20260906040156 69 90 0.0 0.9 0.00 0.02 0.00 86 1015.6
20260906035639 69 215 0.9 1.7 0.00 0.02 0.00 86 1015.7
20260906035137 69 6 0.0 0.9 0.00 0.02 0.00 86 1015.6
20260906034634 70 27 0.9 1.7 0.00 0.02 0.00 85 1015.6
20260906034136 70 0 0.0 0.0 0.00 0.02 0.00 85 1015.6
20260906033653 70 222 0.0 0.0 0.00 0.02 0.00 85 1015.7
20260906033149 70 327 0.9 0.9 0.00 0.02 0.00 84 1015.7
20260906032632 71 63 0.0 0.9 0.00 0.02 0.00 84 1015.7
20260906032131 71 18 0.0 0.9 0.00 0.02 0.00 83 1015.8
20260906031631 72 350 0.0 0.9 0.00 0.02 0.00 81 1015.8
20260906031150 72 139 0.0 0.0 0.00 0.02 0.00 80 1015.8
20260906030643 73 35 0.0 0.0 0.00 0.02 0.00 79 1015.8
20260906030140 73 161 0.0 1.7 0.00 0.02 0.00 78 1015.8
20260906025628 73 88 0.9 1.7 0.00 0.02 0.00 77 1015.8
20260906025128 74 279 0.9 1.7 0.00 0.02 0.00 77 1016.0
20260906024628 73 309 0.9 1.7 0.00 0.02 0.00 77 1016.1
20260906024131 73 295 0.0 0.9 0.00 0.02 0.00 78 1016.1
20260906023627 74 340 0.0 0.9 0.00 0.02 0.00 77 1015.8
20260906023130 74 61 0.0 0.9 0.00 0.02 0.00 76 1015.8
20260906022625 74 307 1.7 3.5 0.00 0.02 0.00 75 1016.0
20260906022125 74 287 0.0 0.9 0.00 0.02 0.00 76 1016.1
20260906021624 74 296 0.9 1.7 0.00 0.02 0.00 76 1016.1
20260906021144 74 63 0.0 0.9 0.00 0.02 0.00 75 1016.1
20260906020623 74 303 0.0 0.9 0.00 0.02 0.00 75 1016.1
20260906020142 74 302 0.9 1.7 0.00 0.02 0.00 75 1016.1
20260906015636 74 318 0.9 0.9 0.00 0.02 0.00 76 1016.0
20260906015121 74 326 0.0 1.7 0.00 0.02 0.00 76 1016.1
20260906014620 74 353 0.0 0.9 0.00 0.02 0.00 77 1016.0
20260906014121 74 284 0.0 0.9 0.00 0.02 0.00 76 1016.0
20260906013619 74 54 0.0 0.0 0.00 0.02 0.00 76 1016.0
20260906013119 74 267 0.0 0.9 0.00 0.02 0.00 75 1015.8
20260906012618 75 306 0.9 1.7 0.00 0.02 0.00 74 1015.7
20260906012118 75 268 0.0 0.9 0.00 0.02 0.00 73 1015.6
20260906011638 75 65 0.0 0.9 0.00 0.02 0.00 73 1015.6
20260906011117 75 224 0.0 0.9 0.00 0.02 0.00 72 1015.5
20260906010616 75 223 0.9 2.6 0.00 0.02 0.00 72 1015.4
20260906010121 76 38 0.0 0.9 0.00 0.02 0.00 72 1015.4
20260906005626 76 13 0.9 1.7 0.00 0.02 0.00 71 1015.2
20260906005127 76 76 0.9 1.7 0.00 0.02 0.00 70 1015.3
20260906004614 76 283 1.7 3.5 0.00 0.02 0.00 70 1015.3
20260906004114 76 251 0.9 3.5 0.00 0.02 0.00 70 1015.2
20260906003633 76 66 0.9 1.7 0.00 0.02 0.00 70 1015.2
20260906003132 76 124 0.0 1.7 0.00 0.02 0.00 69 1015.1
20260906002611 76 261 0.9 2.6 0.00 0.02 0.00 69 1015.2
20260906002111 76 199 0.0 0.9 0.00 0.02 0.00 69 1015.1
20260906001611 76 69 0.9 1.7 0.00 0.02 0.00 68 1015.1
20260906001110 76 290 1.7 4.3 0.00 0.02 0.00 68 1015.1
20260906000610 77 89 0.0 0.9 0.00 0.02 0.00 68 1015.0
20260906000110 77 85 0.9 1.7 0.00 0.02 0.00 67 1014.9
20260905235609 77 310 0.0 0.9 0.00 0.02 0.00 66 1014.9
20260905235129 78 207 0.9 0.9 0.00 0.02 0.00 65 1014.9
20260905234608 78 46 0.9 1.7 0.00 0.02 0.00 65 1014.9
20260905234108 78 283 0.9 1.7 0.00 0.02 0.00 65 1014.8
20260905233612 79 359 0.9 1.7 0.00 0.02 0.00 64 1014.8
20260905233107 79 248 0.0 0.9 0.00 0.02 0.00 63 1014.8
20260905232606 79 308 0.0 0.0 0.00 0.02 0.00 62 1014.9
20260905232106 80 31 0.9 1.7 0.00 0.02 0.00 62 1014.8
20260905231605 80 302 0.9 2.6 0.00 0.02 0.00 61 1014.7
20260905231104 80 31 0.9 1.7 0.00 0.02 0.00 61 1014.7
20260905230604 80 33 0.0 0.9 0.00 0.02 0.00 60 1014.7
20260905230103 81 265 1.7 2.6 0.00 0.02 0.00 59 1014.8
20260905225602 81 54 1.7 2.6 0.00 0.02 0.00 59 1014.8
20260905225102 82 69 1.7 3.5 0.00 0.02 0.00 59 1014.9
20260905224601 82 41 0.9 3.5 0.00 0.02 0.00 60 1014.9
20260905224101 83 69 1.7 2.6 0.00 0.02 0.00 60 1014.9
20260905223600 83 30 0.9 3.5 0.00 0.02 0.00 59 1014.9
20260905223059 82 17 0.9 1.7 0.00 0.02 0.00 59 1014.8
20260905222559 83 314 2.6 5.2 0.00 0.02 0.00 58 1014.8
20260905222059 83 302 1.7 2.6 0.00 0.02 0.00 58 1014.8
20260905221558 83 328 1.7 4.3 0.00 0.02 0.00 58 1014.8
20260905221057 83 49 0.9 2.6 0.00 0.02 0.00 57 1014.8
20260905220557 84 296 3.5 6.1 0.00 0.02 0.00 57 1014.7
20260905220057 85 289 3.5 5.2 0.00 0.03 0.00 54 1014.7
20260905215556 84 87 1.7 4.3 0.00 0.04 0.00 55 1014.6
20260905215055 84 34 2.6 5.2 0.00 0.04 0.00 55 1014.6
20260905214555 84 293 2.6 5.2 0.00 0.04 0.00 58 1014.6
20260905214054 84 16 0.9 2.6 0.00 0.04 0.00 58 1014.5
20260905213554 84 1 1.7 3.5 0.00 0.04 0.00 58 1014.4
20260905213053 84 323 1.7 2.6 0.00 0.04 0.00 58 1014.4
20260905212552 84 272 1.7 3.5 0.00 0.04 0.00 58 1014.3
20260905212052 84 296 5.2 8.7 0.00 0.04 0.00 57 1014.4
20260905211551 84 352 1.7 3.5 0.00 0.04 0.00 59 1014.4
20260905211051 84 300 4.3 6.1 0.00 0.04 0.00 57 1014.4
20260905210550 84 55 3.5 7.8 0.00 0.04 0.00 59 1014.4
20260905210050 84 37 1.7 3.5 0.00 0.04 0.00 58 1014.4
20260905205549 84 51 3.5 6.1 0.00 0.04 0.00 58 1014.3
20260905205048 83 44 2.6 5.2 0.00 0.04 0.00 60 1014.3
20260905204548 83 50 3.5 5.2 0.00 0.04 0.00 59 1014.3
20260905204047 83 42 1.7 3.5 0.00 0.04 0.00 60 1014.3
20260905203547 83 47 3.5 5.2 0.00 0.04 0.00 59 1014.3
20260905203046 83 0 1.7 3.5 0.00 0.04 0.00 61 1014.4
20260905202548 83 55 1.7 3.5 0.00 0.04 0.00 60 1014.4
20260905202045 84 302 4.3 7.0 0.00 0.04 0.00 57 1014.3
20260905201545 83 73 0.9 2.6 0.00 0.04 0.00 57 1014.3
20260905201044 83 50 1.7 6.1 0.00 0.04 0.00 57 1014.1
20260905200543 83 52 2.6 4.3 0.00 0.04 0.00 59 1014.3
20260905200043 83 46 2.6 4.3 0.00 0.04 0.00 58 1014.4
20260905195542 83 50 2.6 5.2 0.00 0.04 0.00 59 1014.4
20260905195041 83 45 2.6 4.3 0.00 0.04 0.00 57 1014.4
20260905194540 84 42 0.9 4.3 0.00 0.04 0.00 58 1014.4
20260905194040 84 52 3.5 6.1 0.00 0.04 0.00 59 1014.3
20260905193539 83 32 2.6 4.3 0.00 0.04 0.00 58 1014.4
20260905193039 83 44 3.5 7.0 0.00 0.04 0.00 59 1014.4
20260905192538 83 303 3.5 7.0 0.00 0.04 0.00 59 1014.4
20260905192038 83 3 0.9 2.6 0.00 0.04 0.00 63 1014.5
20260905191537 83 326 0.9 3.5 0.00 0.04 0.00 65 1014.5
20260905191037 83 47 3.5 7.0 0.00 0.04 0.00 65 1014.6
20260905190536 84 52 5.2 8.7 0.00 0.04 0.00 62 1014.7
20260905190035 83 55 1.7 3.5 0.00 0.04 0.00 66 1014.7
20260905185535 83 20 1.7 4.3 0.00 0.04 0.00 65 1014.7
20260905185034 83 52 6.1 7.8 0.00 0.04 0.00 66 1014.9
20260905184534 84 44 3.5 7.8 0.00 0.04 0.00 65 1014.9
20260905184033 85 78 1.7 5.2 0.00 0.04 0.00 61 1014.9
20260905183533 85 303 3.5 7.8 0.00 0.04 0.00 59 1015.0
20260905183032 85 297 4.3 7.0 0.00 0.04 0.00 60 1015.1
20260905182531 84 326 1.7 4.3 0.00 0.04 0.00 63 1015.1
20260905182031 83 39 0.9 1.7 0.00 0.04 0.00 66 1015.1
20260905181530 82 269 3.5 6.1 0.00 0.04 0.00 65 1015.2
20260905181030 81 308 2.6 5.2 0.00 0.04 0.00 67 1015.2
20260905180529 80 298 1.7 6.1 0.00 0.04 0.00 70 1015.4
20260905180029 80 270 4.3 6.1 0.00 0.04 0.00 70 1015.4
20260905175528 80 294 3.5 6.1 0.00 0.04 0.00 70 1015.5
20260905175027 79 222 4.3 7.0 0.00 0.04 0.00 73 1015.2
20260905174527 78 208 5.2 7.8 0.00 0.04 0.00 74 1015.0
20260905174026 77 217 4.3 7.0 0.00 0.04 0.00 75 1015.2
20260905173526 77 203 8.7 12.2 0.00 0.04 0.00 76 1015.5
20260905173025 76 225 6.1 8.7 0.00 0.04 0.00 76 1015.8
20260905172525 76 203 6.1 11.3 0.00 0.04 0.00 76 1016.1
20260905172024 76 216 4.3 7.0 0.00 0.04 0.00 76 1016.4
20260905171523 76 210 3.5 6.1 0.00 0.04 0.00 76 1016.4
20260905171023 76 220 3.5 5.2 0.00 0.04 0.00 76 1016.7
20260905170522 76 259 1.7 2.6 0.00 0.04 0.00 76 1016.7
20260905170022 75 240 3.5 5.2 0.00 0.04 0.00 78 1016.9
20260905165521 75 242 1.7 4.3 0.00 0.04 0.00 79 1017.0
20260905165021 75 223 3.5 6.1 0.00 0.04 0.00 78 1017.1
20260905164520 76 211 3.5 4.3 0.00 0.04 0.00 78 1017.1
20260905164019 76 220 4.3 6.1 0.00 0.04 0.00 76 1017.3
20260905163519 76 238 2.6 4.3 0.00 0.04 0.00 74 1017.3
20260905163018 76 207 3.5 5.2 0.00 0.04 0.00 73 1017.3
20260905162518 76 261 0.9 1.7 0.00 0.04 0.00 73 1017.4
20260905162017 77 305 1.7 3.5 0.00 0.04 0.00 73 1017.2
20260905161517 77 44 0.9 1.7 0.00 0.04 0.00 73 1017.1
20260905161016 76 347 1.7 3.5 0.00 0.04 0.00 72 1017.1
20260905160516 76 313 1.7 4.3 0.00 0.04 0.00 72 1017.3
20260905160015 76 296 2.6 4.3 0.00 0.04 0.00 72 1017.4
20260905155515 76 270 3.5 4.3 0.00 0.04 0.00 73 1017.7
20260905155014 76 278 3.5 6.1 0.00 0.04 0.00 73 1017.7
20260905154513 76 340 1.7 3.5 0.00 0.04 0.00 74 1017.7
20260905154013 76 35 2.6 5.2 0.00 0.04 0.00 73 1017.7
20260905153512 76 334 1.7 3.5 0.00 0.04 0.00 73 1017.7
20260905153012 76 42 1.7 3.5 0.00 0.04 0.00 73 1017.4
20260905152511 76 27 2.6 4.3 0.00 0.04 0.00 72 1017.7
20260905152011 77 76 2.6 5.2 0.00 0.04 0.00 73 1017.7
20260905151514 78 51 1.7 5.2 0.00 0.04 0.00 75 1017.8
20260905151014 79 295 4.3 9.6 0.00 0.04 0.00 73 1017.7
20260905150514 82 272 3.5 7.0 0.00 0.04 0.00 70 1017.7
20260905150015 83 288 3.5 5.2 0.00 0.04 0.00 68 1017.0
20260905145514 83 272 2.6 3.5 0.00 0.04 0.00 68 1016.8
20260905145011 83 292 3.5 5.2 0.00 0.04 0.00 68 1016.7
20260905144506 83 288 1.7 2.6 0.00 0.04 0.00 67 1016.7
20260905144006 83 288 3.5 7.0 0.00 0.04 0.00 67 1016.8
20260905143506 83 298 2.6 4.3 0.00 0.04 0.00 67 1016.8
20260905143025 83 286 4.3 6.1 0.00 0.04 0.00 67 1016.8
20260905142504 83 336 1.7 3.5 0.00 0.04 0.00 68 1016.8
20260905142004 83 267 1.7 3.5 0.00 0.04 0.00 67 1016.8
20260905141503 83 316 2.6 5.2 0.00 0.04 0.00 67 1016.7
20260905141023 83 261 2.6 6.1 0.00 0.04 0.00 67 1016.7
20260905140504 83 266 3.5 7.8 0.00 0.04 0.00 68 1016.7
20260905140021 82 253 4.3 7.8 0.00 0.04 0.00 69 1016.7
20260905135521 82 254 1.7 2.6 0.00 0.04 0.00 71 1016.8
20260905135000 82 262 0.9 1.7 0.00 0.04 0.00 72 1016.7
20260905134507 81 260 2.6 4.3 0.00 0.04 0.00 70 1016.7
20260905133959 81 264 2.6 3.5 0.00 0.04 0.00 71 1016.8
20260905133519 81 254 1.7 2.6 0.00 0.04 0.00 71 1016.7
20260905132959 80 206 1.7 3.5 0.00 0.04 0.00 72 1016.7
20260905132507 80 242 2.6 5.2 0.00 0.04 0.00 72 1016.7
20260905132008 79 297 1.7 4.3 0.00 0.04 0.00 74 1016.7
20260905131456 78 216 1.7 1.7 0.00 0.04 0.00 76 1016.7
20260905130955 77 210 2.6 4.3 0.00 0.04 0.00 75 1016.7
20260905130455 76 212 0.0 0.9 0.00 0.04 0.00 79 1016.8
20260905130015 75 212 1.7 3.5 0.00 0.04 0.00 79 1016.9
20260905125514 75 211 3.5 4.3 0.00 0.04 0.00 79 1016.9
20260905125008 75 220 1.7 2.6 0.00 0.04 0.00 81 1016.8
20260905124513 75 73 0.9 2.6 0.00 0.04 0.00 81 1016.9
20260905123952 75 190 1.7 2.6 0.00 0.04 0.00 79 1016.9
20260905123506 75 70 0.9 1.7 0.00 0.04 0.00 79 1016.9
20260905122951 74 205 0.9 1.7 0.00 0.04 0.00 79 1016.9
20260905122501 73 0 0.0 0.0 0.00 0.04 0.00 83 1016.8
20260905122010 72 41 0.9 1.7 0.00 0.04 0.00 85 1016.8
20260905121449 71 185 2.6 3.5 0.00 0.04 0.00 85 1016.7
20260905120949 71 196 1.7 2.6 0.00 0.04 0.00 86 1016.7
20260905120508 71 216 2.6 2.6 0.00 0.04 0.00 86 1016.7
20260905115948 70 209 1.7 3.5 0.00 0.04 0.00 87 1016.6
20260905115500 69 227 1.7 1.7 0.00 0.04 0.00 89 1016.6
20260905114946 69 205 0.9 1.7 0.00 0.04 0.00 91 1016.7
20260905114506 68 199 1.7 2.6 0.00 0.04 0.00 92 1016.6
20260905113945 68 213 2.6 2.6 0.00 0.04 0.00 92 1016.6
20260905113444 67 207 1.7 1.7 0.00 0.04 0.00 93 1016.6
20260905112944 67 199 1.7 2.6 0.00 0.04 0.00 93 1016.7
20260905112504 67 207 1.7 1.7 0.00 0.04 0.00 94 1016.7
20260905111943 67 198 0.9 1.7 0.00 0.04 0.00 94 1016.6
20260905111455 67 205 0.9 0.9 0.00 0.04 0.00 94 1016.6
20260905110942 67 200 1.7 2.6 0.00 0.04 0.00 94 1016.6
20260905110442 67 184 0.9 0.9 0.00 0.04 0.00 94 1016.6
20260905105941 67 201 1.7 1.7 0.00 0.04 0.00 94 1016.6
20260905105454 67 4 0.9 0.9 0.00 0.04 0.00 93 1016.7
20260905105000 67 196 1.7 1.7 0.00 0.04 0.00 94 1016.6
20260905104459 67 228 1.7 2.6 0.00 0.04 0.00 94 1016.5